TimeMST,TemperatureF,Dew PointF,Humidity,Sea Level PressureIn,VisibilityMPH,Wind Direction,Wind SpeedMPH,Gust SpeedMPH,PrecipitationIn,Events,Conditions,WindDirDegrees,DateUTC
12:16 AM,1.4,-2.2,85,30.12,-9999.0,Calm,Calm,-,N/A,,Unknown,0,2013-02-17 07:16:00
12:36 AM,1.4,-2.2,85,30.12,-9999.0,Calm,Calm,-,N/A,,Unknown,0,2013-02-17 07:36:00
12:56 AM,-0.4,-4.0,85,30.12,-9999.0,SSE,3.5,-,N/A,,Unknown,150,2013-02-17 07:56:00
1:16 AM,1.4,-4.0,78,30.11,-9999.0,Calm,Calm,-,N/A,,Clear,0,2013-02-17 08:16:00
1:36 AM,1.4,-4.0,78,30.10,-9999.0,Calm,Calm,-,N/A,,Clear,0,2013-02-17 08:36:00
1:56 AM,1.4,-4.0,78,30.09,-9999.0,NE,3.5,-,N/A,,Unknown,40,2013-02-17 08:56:00
2:16 AM,1.4,-4.0,78,30.09,-9999.0,Calm,Calm,-,N/A,,Unknown,0,2013-02-17 09:16:00
2:36 AM,-0.4,-4.0,85,30.07,-9999.0,NE,3.5,-,N/A,,Unknown,50,2013-02-17 09:36:00
2:56 AM,-0.4,-5.8,78,30.07,-9999.0,Calm,Calm,-,N/A,,Clear,0,2013-02-17 09:56:00
3:16 AM,-0.4,-4.0,85,30.06,-9999.0,Calm,Calm,-,N/A,,Unknown,0,2013-02-17 10:16:00
3:36 AM,-2.2,-5.8,85,30.06,-9999.0,Calm,Calm,-,N/A,,Unknown,0,2013-02-17 10:36:00
3:56 AM,-4.0,-7.6,85,30.04,-9999.0,Calm,Calm,-,N/A,,Clear,0,2013-02-17 10:56:00
4:16 AM,-5.8,-9.4,84,30.04,-9999.0,Calm,Calm,-,N/A,,Clear,0,2013-02-17 11:16:00
4:36 AM,-4.0,-7.6,85,30.03,-9999.0,Calm,Calm,-,N/A,,Clear,0,2013-02-17 11:36:00
4:56 AM,-4.0,-9.4,78,30.03,-9999.0,Calm,Calm,-,N/A,,Clear,0,2013-02-17 11:56:00
5:16 AM,-4.0,-7.6,85,30.02,-9999.0,Calm,Calm,-,N/A,,Clear,0,2013-02-17 12:16:00
5:36 AM,-2.2,-7.6,78,30.02,-9999.0,Calm,Calm,-,N/A,,Clear,0,2013-02-17 12:36:00
5:56 AM,-2.2,-7.6,78,30.02,-9999.0,Calm,Calm,-,N/A,,Clear,0,2013-02-17 12:56:00
6:15 AM,-5.8,-9.4,84,30.01,-9999.0,Calm,Calm,-,N/A,,Clear,0,2013-02-17 13:15:00
6:36 AM,-5.8,-9.4,84,30.00,-9999.0,Calm,Calm,-,N/A,,Unknown,0,2013-02-17 13:36:00
6:55 AM,-4.0,-9.4,78,29.99,-9999.0,Calm,Calm,-,N/A,,Clear,0,2013-02-17 13:55:00
7:16 AM,-5.8,-9.4,84,29.99,-9999.0,Calm,Calm,-,N/A,,Clear,0,2013-02-17 14:16:00
7:36 AM,-4.0,-9.4,78,29.99,-9999.0,Calm,Calm,-,N/A,,Clear,0,2013-02-17 14:36:00
7:56 AM,-2.2,-7.6,78,29.98,-9999.0,Calm,Calm,-,N/A,,Clear,0,2013-02-17 14:56:00
8:16 AM,-0.4,-5.8,78,29.97,-9999.0,Calm,Calm,-,N/A,,Clear,0,2013-02-17 15:16:00
8:36 AM,1.4,-4.0,78,29.97,-9999.0,Calm,Calm,-,N/A,,Clear,0,2013-02-17 15:36:00
8:56 AM,3.2,-2.2,78,29.96,-9999.0,Calm,Calm,-,N/A,,Clear,0,2013-02-17 15:56:00
9:16 AM,5.0,1.4,85,29.96,-9999.0,Calm,Calm,-,N/A,,Clear,0,2013-02-17 16:16:00
9:36 AM,6.8,1.4,79,29.94,-9999.0,Calm,Calm,-,N/A,,Clear,0,2013-02-17 16:36:00
9:56 AM,8.6,1.4,73,29.93,-9999.0,Calm,Calm,-,N/A,,Clear,0,2013-02-17 16:56:00
10:16 AM,10.4,3.2,73,29.91,-9999.0,Calm,Calm,-,N/A,,Clear,0,2013-02-17 17:16:00
10:36 AM,12.2,3.2,67,29.90,-9999.0,Calm,Calm,-,N/A,,Clear,0,2013-02-17 17:36:00
10:56 AM,14.0,5.0,67,29.88,-9999.0,Calm,Calm,-,N/A,,Clear,0,2013-02-17 17:56:00
11:16 AM,17.6,5.0,58,29.86,-9999.0,Calm,Calm,-,N/A,,Clear,0,2013-02-17 18:16:00
11:36 AM,19.4,6.8,58,29.85,-9999.0,Calm,Calm,-,N/A,,Clear,0,2013-02-17 18:36:00
11:56 AM,19.4,6.8,58,29.83,-9999.0,Calm,Calm,-,N/A,,Clear,0,2013-02-17 18:56:00
12:16 PM,21.2,8.6,58,29.81,-9999.0,Calm,Calm,-,N/A,,Clear,0,2013-02-17 19:16:00
12:36 PM,24.8,10.4,54,29.79,-9999.0,Calm,Calm,-,N/A,,Clear,0,2013-02-17 19:36:00
12:56 PM,26.6,10.4,51,29.77,-9999.0,Calm,Calm,-,N/A,,Clear,0,2013-02-17 19:56:00
1:16 PM,28.4,12.2,51,29.75,-9999.0,Calm,Calm,-,N/A,,Clear,0,2013-02-17 20:16:00
1:36 PM,28.4,14.0,55,29.74,-9999.0,Calm,Calm,-,N/A,,Clear,0,2013-02-17 20:36:00
1:55 PM,30.2,14.0,51,29.72,-9999.0,Calm,Calm,-,N/A,,Clear,0,2013-02-17 20:55:00
2:15 PM,30.2,14.0,51,29.71,-9999.0,Calm,Calm,-,N/A,,Clear,0,2013-02-17 21:15:00
2:36 PM,33.8,12.2,41,29.70,-9999.0,Calm,Calm,-,N/A,,Clear,0,2013-02-17 21:36:00
2:56 PM,39.2,8.6,28,29.69,-9999.0,WSW,16.1,25.3,N/A,,Clear,250,2013-02-17 21:56:00
3:15 PM,41.0,5.0,23,29.69,-9999.0,WSW,18.4,23.0,N/A,,Clear,250,2013-02-17 22:15:00
3:35 PM,41.0,5.0,23,29.69,-9999.0,WSW,13.8,20.7,N/A,,Clear,250,2013-02-17 22:35:00
3:56 PM,41.0,5.0,23,29.68,-9999.0,WSW,9.2,24.2,N/A,,Clear,250,2013-02-17 22:56:00
4:16 PM,37.4,8.6,30,29.68,-9999.0,WSW,10.4,-,N/A,,Clear,250,2013-02-17 23:16:00
4:36 PM,39.2,5.0,24,29.68,-9999.0,West,20.7,34.5,N/A,,Clear,280,2013-02-17 23:36:00
5:16 PM,35.6,6.8,30,29.68,-9999.0,West,9.2,-,N/A,,Clear,260,2013-02-18 00:16:00
5:36 PM,33.8,8.6,35,29.69,-9999.0,North,3.5,-,N/A,,Clear,360,2013-02-18 00:36:00
5:56 PM,30.2,12.2,47,29.69,-9999.0,Calm,Calm,-,N/A,,Clear,0,2013-02-18 00:56:00
6:16 PM,26.6,12.2,55,29.69,-9999.0,East,6.9,-,N/A,,Clear,100,2013-02-18 01:16:00
6:36 PM,28.4,12.2,51,29.70,-9999.0,North,4.6,-,N/A,,Clear,360,2013-02-18 01:36:00
6:55 PM,28.4,12.2,51,29.71,-9999.0,North,10.4,-,N/A,,Clear,350,2013-02-18 01:55:00
7:16 PM,30.2,14.0,51,29.73,-9999.0,NNW,6.9,-,N/A,,Mostly Cloudy,330,2013-02-18 02:16:00
7:36 PM,30.2,15.8,55,29.74,-9999.0,NW,3.5,-,N/A,,Overcast,310,2013-02-18 02:36:00
7:56 PM,30.2,17.6,60,29.74,-9999.0,NNW,10.4,18.4,N/A,,Overcast,330,2013-02-18 02:56:00
8:16 PM,30.2,19.4,64,29.76,-9999.0,Calm,Calm,-,N/A,,Overcast,0,2013-02-18 03:16:00
8:36 PM,30.2,15.8,55,29.77,-9999.0,North,6.9,-,N/A,,Overcast,360,2013-02-18 03:36:00
8:55 PM,28.4,14.0,55,29.79,-9999.0,NNW,11.5,17.3,N/A,,Overcast,330,2013-02-18 03:55:00
9:16 PM,26.6,10.4,51,29.80,-9999.0,NNW,13.8,19.6,N/A,,Overcast,330,2013-02-18 04:16:00
9:36 PM,24.8,10.4,54,29.81,-9999.0,NW,8.1,-,N/A,,Overcast,310,2013-02-18 04:36:00
9:56 PM,24.8,12.2,59,29.82,-9999.0,NNW,8.1,11.5,N/A,,Overcast,330,2013-02-18 04:56:00
10:16 PM,23.0,10.4,59,29.82,-9999.0,NW,6.9,17.3,N/A,,Overcast,320,2013-02-18 05:16:00
10:36 PM,23.0,12.2,63,29.83,-9999.0,NNW,8.1,-,N/A,,Overcast,340,2013-02-18 05:36:00
10:56 PM,23.0,10.4,59,29.83,-9999.0,North,4.6,-,N/A,,Overcast,350,2013-02-18 05:56:00
11:15 PM,23.0,10.4,59,29.83,-9999.0,Calm,Calm,-,N/A,,Overcast,0,2013-02-18 06:15:00
11:36 PM,23.0,8.6,54,29.83,-9999.0,NNW,3.5,-,N/A,,Overcast,330,2013-02-18 06:36:00
11:56 PM,23.0,10.4,59,29.83,-9999.0,NNW,8.1,-,N/A,,Overcast,330,2013-02-18 06:56:00